Powrót do katalogu

FENGYUN 1C DEB

AktywnySSO
NORAD 29845·DEBRIS·🇨🇳 China

Wystrzelony May 10, 1999 z Taiyuan Satellite Launch Center

Loading…

Następne Przeloty (najbliższe 24 godziny)

TLE

ŚwieżeSource: Space-Track

Epoka: Sep 14, 2026, 11:21 UTC

1 29845U 99025EP  26257.47338868  .00000521  00000-0  22434-3 0  9998
2 29845  98.5313 255.8080 0078002  44.7958 107.6677 14.26997434 20400

Śledź FENGYUN 1C DEB w czasie rzeczywistym z AllMySat

Download on the App Store